Weather Roundup
Issued by NWS

Home | Current Version | Previous Version | Text Only | Print | Product List | Glossary On
Versions: 1 2 3 4 5 6 7 8 9 10 11 12 13 14 15 16 17 18 19 20 21 22 23 24 25 26 27 28 29 30 31 32 33 34 35 36 37 38 39 40 41 42 43 44 45 46 47 48 49 50
928
NZUS93 KARX 241959
HRRWXR

CURRENT HOURLY OBSERVATIONS ACROSS
MUCH OF THE UPPER MISSISSIPPI VALLEY
NATIONAL WEATHER SERVICE LA CROSSE WI
300 PM CDT MON JUL 24 2017


...SOUTHEAST MINNESOTA...


CITY           SKY/WX    TMP DP  RH WIND       PRES   REMARKS
ROCHESTER      CLOUDY    71  61  70 E7        30.06F
ROCHESTER/MAYO MOCLDY    73  57  56 SE5       30.06F
WINONA         SUNNY     72  59  64 SE6       30.07S
AUSTIN         CLOUDY    73  61  64 SE10      30.05S
ALBERT LEA     CLOUDY    73  61  64 S9        30.05S
DODGE CENTER   PTSUNNY   72  61  68 SE6       30.06F
PRESTON        MOSUNNY   71  58  63 SE7       30.07F
OWATONNA       PTSUNNY   75  61  60 SE9       30.04F
FARIBAULT      PTSUNNY   73  61  64 SE10      30.04F
$$

...ELSEWHERE IN MINNESOTA...


CITY           SKY/WX    TMP DP  RH WIND       PRES   REMARKS
MINNEAPOLIS    CLOUDY    76  60  57 E9        30.03F
INTNL FALLS    SUNNY     78  52  40 VRB7      29.99F
DULUTH         SUNNY     72  55  55 SE9       30.06S
RED WING       CLOUDY    75  54  46 SE8       30.04S
REDWOOD FALLS  MOSUNNY   78  61  55 SE15      30.00F
MANKATO        PTSUNNY   74  61  63 SE9       30.04S
WORTHINGTON    MOSUNNY   78  63  59 MISG      30.01F
FAIRMONT       PTSUNNY   77  62  59 SE12      30.03S
$$

...SOUTHWEST WISCONSIN...


CITY           SKY/WX    TMP DP  RH WIND       PRES   REMARKS
LA CROSSE      MOSUNNY   76  59  55 SE6       30.06F
PRAIRIE DU CHI PTSUNNY   75  58  54 NE8       30.05F
BOSCOBEL       PTSUNNY   75  59  57 VRB6      30.07S
LONE ROCK      NOT AVBL
PLATTEVILLE    CLOUDY    73  63  69 E7        30.07S
FORT MC COY    MOSUNNY   73  58  60 CALM      30.08F
MAUSTON-NEW LI PTCLDY    73  58  59 SE6       30.07F
VIROQUA        FAIR      71  60  67 CALM      30.08F
WIS DELLS      PTSUNNY   74  55  50 E6        30.08F
$$

...ELSEWHERE IN WISCONSIN...


CITY           SKY/WX    TMP DP  RH WIND       PRES   REMARKS
MILWAUKEE      MOSUNNY   70  61  73 N14       30.08S
MADISON        PTSUNNY   75  58  55 NE6       30.07S
GREEN BAY      SUNNY     74  58  57 NE7       30.09S
EAU CLAIRE     NOT AVBL
BLACK RVR FLS  FAIR      76  55  49 S5        30.07S
MEDFORD        MOSUNNY   73  55  53 S7        30.09S
WAUSAU         SUNNY     75  53  46 VRB5      30.07S
WIS RAPIDS     MOSUNNY   76  56  49 VRB6      30.09S
MARSHFIELD     PTSUNNY   74  55  51 VRB6      30.08S
RICE LAKE      SUNNY     72  54  53 SE7       30.09F
$$

...NORTHEAST IOWA...


CITY           SKY/WX    TMP DP  RH WIND       PRES   REMARKS
WATERLOO       CLOUDY    75  62  64 E7        30.03S
DUBUQUE        PTSUNNY   72  59  63 VRB3      30.07F
DECORAH        CLOUDY    70  61  73 SE6       30.06F
MASON CITY     CLOUDY    74  61  63 E7        30.06S
CHARLES CITY   PTSUNNY   73  63  68 SE5       30.06S
OELWEIN          N/A    N/A N/A N/A MISG        N/A
$$

...ELSEWHERE IN IOWA...


CITY           SKY/WX    TMP DP  RH WIND       PRES   REMARKS
DES MOINES     MOSUNNY   84  60  44 VRB7      30.00F
IOWA CITY      CLOUDY    77  63  61 E8        30.04F
FORT DODGE     MOSUNNY   79  63  57 E12       30.03F
MARSHALLTOWN   PTSUNNY   77  63  61 SE8       30.02F
CEDAR RAPIDS   PTSUNNY   77  65  66 SE7       30.03F
$$

...NORTHERN ILLINOIS...


CITY           SKY/WX    TMP DP  RH WIND       PRES   REMARKS
CHICAGO-OHARE  PTSUNNY   73  58  59 NE14      30.05S
CHICAGO-MIDWAY PTSUNNY   73  58  59 N15       30.04S
MOLINE         CLOUDY    74  64  71 E7        30.05R
ROCKFORD       PTSUNNY   77  58  51 E6        30.07S
PEORIA         CLOUDY    76  66  71 NE6       30.03S
$$

NOTE: "FAIR" INDICATES FEW OR NO CLOUDS BELOW 12,000 FEET WITH NO
SIGNIFICANT WEATHER AND/OR OBSTRUCTIONS TO VISIBILITY. WIND
SPEEDS ARE IN MILES-PER-HOUR.




USA.gov is the U.S. government's official web portal to all federal, state and local government web resources and services.